Wind_Speed
4 7 16 20 19 20 21 21 22 23 23 23 23 22 21 21 21 20 18 17 17 16 15 14 13 13 11 10 9 8 6 6 6 7 6 5 3 1 1 2 3 3 3 2 1 1 3 6 7 6 7 7 7 6 5 2 3 4 4 4 4 4 5 6 7 5 5 8 11 14 14 11 9 8 10 12 14 15 16 17 17 16 16 17 18
4 7 13 18 17 18 20 21 23 24 24 24 23 22 21 21 21 21 20 18 17 16 17 16 14 12 11 10 10 9 7 6 6 6 5 4 3 1 1 2 2 3 3 3 3 3 3 5 8 8 9 10 11 11 13 11 6 5 4 4 6 5 2 2 3 3 4 3 1 5 9 11 9 8 8 10 12 14 16 17 18 18 18 18 18
6 7 11 17 17 18 20 21 24 25 25 25 23 23 22 22 22 22 21 20 18 18 18 17 15 12 10 10 10 8 7 6 6 6 6 5 3 2 2 3 3 4 5 5 7 7 7 8 9 11 12 12 12 13 14 14 13 11 9 8 10 9 6 3 2 3 5 4 2 2 3 4 6 5 6 9 10 11 14 16 18 19 20 19 18
9 8 9 13 16 19 21 22 24 23 24 26 25 24 23 24 24 24 22 21 20 20 18 17 16 13 11 10 9 7 7 7 7 8 7 6 4 3 2 2 2 3 4 5 7 9 9 10 10 11 12 12 13 14 15 15 15 15 13 11 11 12 10 7 6 5 4 3 2 1 1 1 2 3 7 9 7 5 7 11 14 17 19 20 20
12 11 10 12 16 20 22 23 24 24 26 27 27 25 24 25 25 24 23 23 22 21 19 18 16 15 13 12 10 8 8 8 8 8 7 6 5 3 2 2 2 3 4 4 5 7 8 8 9 10 11 10 11 12 14 14 14 14 13 13 12 12 12 11 9 8 7 5 3 2 1 0 1 2 5 6 5 6 5 4 5 7 11 14 16
11 12 11 12 16 18 21 23 25 26 28 28 28 26 24 24 25 25 25 25 24 22 20 18 16 16 17 17 14 12 11 10 8 8 8 7 6 4 3 4 4 4 4 4 5 5 5 6 6 7 8 9 9 10 11 11 12 12 11 11 12 11 11 12 11 9 8 7 5 3 1 0 1 1 1 1 6 7 3 5 6 5 6 7 8
10 11 11 11 14 16 20 26 29 29 28 28 28 26 26 25 26 27 27 27 26 23 21 19 17 17 19 19 16 15 14 11 9 8 8 7 6 5 5 6 6 6 5 5 5 5 5 5 5 6 7 8 8 9 11 11 11 11 10 9 9 8 8 11 12 8 7 7 7 5 4 3 1 2 2 1 4 4 5 10 10 7 8 9 9
12 12 12 11 14 18 23 28 31 29 28 29 30 29 28 27 27 29 29 29 27 25 23 21 19 19 20 19 16 14 12 10 10 9 8 7 6 6 5 5 6 6 6 6 6 6 6 7 7 8 9 10 10 11 12 12 11 11 10 9 8 8 8 9 9 8 6 6 5 5 5 5 3 2 2 3 2 2 5 9 10 11 13 12 9
13 14 14 13 17 24 27 27 26 27 28 30 32 31 29 29 29 30 31 30 28 26 24 22 20 20 21 20 16 14 12 10 11 10 9 7 7 7 7 5 5 6 6 6 6 7 8 9 9 10 11 11 11 11 12 11 12 11 11 11 9 9 9 8 8 8 7 6 5 5 5 4 4 3 3 4 2 2 3 3 8 14 15 13 12
13 15 14 15 20 23 22 20 22 24 27 29 30 30 30 30 31 31 32 31 29 27 26 24 22 21 22 21 18 15 13 12 12 11 10 8 8 8 8 7 6 6 6 6 6 7 7 8 8 9 10 10 10 11 11 12 12 12 12 11 11 10 10 9 8 8 6 5 5 5 5 5 4 3 4 6 4 3 3 3 6 9 9 13 17
11 12 10 12 15 17 17 18 21 23 25 27 29 30 31 32 33 33 33 32 30 28 27 25 24 23 23 22 19 16 15 15 14 13 12 11 10 10 10 9 8 7 6 6 6 6 6 5 6 7 8 8 9 10 11 12 12 12 12 12 12 12 12 11 10 9 7 6 5 5 5 5 4 2 3 5 3 2 4 4 5 7 9 12 14
8 7 7 8 9 13 18 20 21 23 25 29 31 32 32 33 34 34 33 33 31 30 28 26 25 25 24 24 22 18 17 18 17 16 15 13 12 11 11 11 10 9 7 6 5 5 4 3 3 4 5 7 8 10 11 11 11 11 12 13 13 13 12 12 12 11 10 9 7 7 6 5 4 3 3 3 3 3 4 4 5 8 8 9 13
5 6 6 7 8 10 15 19 22 26 29 31 32 33 34 34 34 35 35 35 33 31 30 28 27 27 26 26 24 21 19 19 19 17 16 15 13 13 12 12 11 10 9 7 6 5 4 2 1 1 3 5 7 8 8 9 10 11 12 12 12 12 11 11 11 11 11 10 9 9 8 8 6 5 4 4 4 4 4 4 5 6 6 9 14
2 5 6 7 7 8 12 16 20 24 28 31 33 34 34 33 33 35 35 35 34 32 31 30 29 29 28 27 26 23 21 21 20 19 17 16 15 14 13 12 11 10 10 9 7 5 4 3 2 1 1 3 5 6 6 7 8 10 12 12 12 12 11 11 10 10 10 10 10 9 9 9 9 7 6 5 5 5 5 5 5 6 7 9 10
2 2 3 4 6 10 13 15 17 18 21 25 29 32 33 33 34 35 35 35 34 33 32 31 31 30 29 29 27 25 23 22 21 20 19 17 16 15 14 13 11 9 9 10 9 7 6 5 4 2 0 2 4 4 4 5 6 8 10 10 11 11 10 10 10 10 11 10 10 10 10 10 9 9 8 7 6 6 6 6 6 5 6 6 6
4 1 2 3 6 10 13 16 17 16 17 20 23 26 29 31 33 35 35 35 35 35 35 33 32 32 31 30 29 27 25 24 23 22 21 19 18 17 15 14 12 10 10 10 10 9 8 7 6 4 1 1 2 3 3 3 5 7 8 9 9 9 9 10 10 10 11 12 12 12 11 11 10 9 9 9 8 7 8 8 7 6 6 5 4
6 3 1 2 5 8 11 14 16 15 17 19 21 22 25 26 28 30 31 32 34 36 36 35 33 33 33 32 30 29 27 26 25 24 22 21 20 19 17 15 14 13 12 12 11 10 10 9 7 5 3 2 2 1 1 2 4 5 6 8 8 8 8 8 9 10 11 12 12 12 12 11 10 10 9 9 9 10 10 10 9 8 7 5 4
8 7 4 2 2 6 10 11 12 13 14 16 19 22 24 25 26 28 29 31 33 35 35 35 34 34 34 33 32 31 30 29 27 25 24 22 22 21 20 19 17 15 14 14 13 12 12 11 9 7 5 3 2 1 1 1 3 4 5 6 7 7 7 7 8 9 10 11 12 12 12 12 11 11 11 10 10 10 11 11 12 11 10 8 6
8 8 7 6 4 0 6 10 11 12 12 14 16 20 23 24 25 26 27 28 29 29 30 32 34 35 35 34 33 32 31 30 29 27 26 25 24 23 22 21 19 18 17 16 15 15 14 12 10 8 6 4 2 2 2 2 2 3 4 5 5 5 5 6 7 8 9 10 11 11 11 12 12 12 12 12 12 12 12 12 12 12 12 12 10
6 7 7 7 9 9 3 6 10 11 13 13 15 19 22 21 21 23 24 25 25 26 28 30 32 34 34 34 34 33 32 32 30 29 28 28 27 25 24 23 21 20 19 18 17 16 15 13 11 9 7 5 3 3 2 1 1 2 3 4 4 4 4 4 5 7 9 10 11 12 12 12 12 12 12 13 13 13 13 13 12 12 12 13 14
6 6 6 6 9 15 13 5 3 7 10 12 14 17 20 20 21 22 23 24 26 27 29 30 31 32 33 34 35 35 34 33 32 31 31 30 29 28 27 25 23 22 21 20 19 17 16 14 12 10 8 6 4 3 2 1 1 2 4 5 5 6 6 6 7 8 9 11 12 13 14 14 15 15 14 13 13 13 13 13 13 13 13 12 13
6 6 6 6 8 13 17 15 11 6 1 5 10 14 17 19 21 23 25 27 27 28 31 31 31 33 35 36 36 36 36 35 34 33 33 32 31 30 29 27 25 24 22 21 20 18 16 15 13 11 8 6 5 3 2 2 3 4 6 7 7 7 7 7 8 9 10 11 13 15 16 17 18 18 17 15 13 11 11 12 12 13 14 12 11
5 5 5 6 9 13 16 19 19 18 16 12 4 4 10 15 18 21 25 27 28 30 32 31 30 32 35 37 36 36 36 35 36 36 36 35 34 32 31 29 26 24 23 21 20 19 17 15 13 11 8 6 5 4 3 4 5 6 7 8 8 8 7 7 8 9 11 13 15 17 19 20 21 21 20 17 14 12 12 13 14 13 14 14 12
6 6 5 7 12 15 16 17 18 19 21 21 19 15 8 6 11 16 21 25 27 29 30 29 29 31 35 35 36 37 36 36 36 38 38 37 35 34 32 30 27 24 23 22 20 18 17 15 13 11 9 7 6 5 5 6 6 7 8 8 8 7 7 8 9 11 12 14 16 18 20 21 21 21 21 20 18 17 16 16 17 16 16 16 16
6 6 7 9 11 11 13 15 17 19 21 22 23 23 20 15 8 8 15 19 22 25 27 28 30 34 35 35 35 36 36 37 38 39 39 39 37 35 32 29 26 24 23 22 20 19 17 15 13 11 9 8 6 6 6 7 7 8 9 8 7 8 9 10 11 13 14 15 17 18 20 20 19 19 20 20 20 20 20 19 19 19 18 18 19
6 6 7 7 7 8 11 15 17 19 21 22 23 23 23 21 17 11 8 11 15 20 23 26 29 33 33 33 34 35 36 38 39 39 39 39 37 35 32 29 27 25 23 22 21 19 17 15 13 11 9 8 7 7 7 7 7 7 7 7 8 9 11 12 14 15 16 17 18 19 20 19 18 18 18 19 19 20 20 21 20 20 19 19 20
5 5 5 6 6 7 9 13 15 17 19 21 22 24 24 23 22 19 16 12 10 14 19 23 27 29 30 30 31 32 33 34 35 36 37 38 38 37 33 30 28 25 24 23 22 19 17 15 13 11 10 9 8 8 7 6 5 6 6 8 9 11 13 15 16 17 18 19 20 20 20 20 19 19 19 19 19 19 19 20 20 20 20 20 20
4 4 4 5 5 5 7 11 14 17 18 20 21 22 23 24 23 23 21 18 15 12 14 19 23 25 27 26 26 27 28 29 30 31 32 34 35 34 33 31 29 26 25 24 22 19 17 15 13 11 10 9 9 8 6 5 4 5 7 9 11 14 16 18 19 20 20 21 21 21 21 21 20 20 20 20 20 20 20 20 20 20 20 21 21
5 5 4 4 4 4 5 9 12 15 18 20 21 22 23 24 24 24 23 22 19 16 13 14 18 22 24 25 25 26 25 26 27 29 30 30 29 28 29 28 27 25 24 23 21 19 17 15 13 11 11 10 9 7 5 4 4 6 8 11 13 15 18 20 21 22 23 23 23 22 22 22 21 21 22 22 22 21 21 22 22 21 21 22 22
5 5 5 4 3 4 5 8 11 13 16 18 19 21 22 22 24 24 24 23 21 20 18 16 16 19 22 23 24 24 24 25 27 29 31 30 28 28 27 26 25 25 24 22 19 17 16 14 14 13 12 11 9 7 5 4 5 7 10 12 15 17 18 20 22 23 24 24 24 23 23 23 23 23 23 24 24 24 24 24 24 24 24 23 23
5 5 5 5 5 5 6 9 11 13 14 15 18 20 21 22 24 24 24 23 21 21 21 19 18 19 20 22 23 23 23 25 26 28 29 28 27 28 29 29 28 26 24 21 18 17 16 15 14 14 13 11 9 6 4 4 6 8 11 14 16 18 19 20 21 22 24 25 24 24 25 24 24 24 25 25 25 25 25 25 25 25 25 25 25
5 5 5 6 6 6 7 9 12 14 14 16 18 19 21 23 24 24 24 23 21 21 21 22 21 20 19 20 22 23 24 25 25 26 27 27 26 28 30 31 30 27 25 22 19 17 17 16 16 15 13 10 7 5 4 5 7 10 13 16 18 19 21 21 22 23 23 24 25 26 25 25 25 25 25 25 24 25 25 25 25 25 25 25 25
5 5 5 5 6 7 9 12 15 16 17 18 19 19 21 23 23 23 23 22 22 21 21 22 23 22 21 20 21 23 24 25 24 24 25 25 26 29 31 31 30 28 26 23 20 18 18 17 16 14 12 8 5 4 5 6 9 11 14 18 21 22 22 23 23 23 24 24 25 26 26 26 25 25 24 24 25 26 26 26 26 26 27 27 26
5 6 5 6 7 9 12 15 17 20 21 22 21 21 22 22 22 22 21 21 21 21 22 23 23 24 22 20 20 22 24 24 23 23 23 25 28 31 32 30 29 27 25 23 21 19 18 17 15 12 9 6 4 4 5 7 10 13 17 20 23 24 24 24 24 24 25 25 26 26 27 27 26 26 25 25 26 27 27 28 28 28 28 29 28
6 6 6 7 10 12 14 17 20 22 24 25 25 24 24 23 22 21 21 21 21 21 21 21 22 23 23 21 20 22 23 23 22 22 24 27 29 31 31 30 28 26 23 21 21 20 18 15 12 9 6 4 3 4 6 9 12 16 20 23 26 26 26 25 25 25 25 26 25 25 27 27 27 27 26 25 26 26 27 28 29 29 30 30 30
6 7 8 11 13 14 16 20 22 24 25 25 26 26 26 24 22 21 21 21 21 21 21 21 22 22 23 22 21 22 22 22 22 23 26 28 31 32 31 30 27 23 21 20 20 20 17 13 9 6 3 2 3 5 7 10 14 18 22 26 28 28 27 26 27 27 26 26 25 25 25 26 26 26 26 26 25 25 26 28 29 31 31 31 31
10 11 13 15 15 16 18 21 23 25 25 26 27 26 26 24 23 22 22 21 20 21 22 23 23 23 23 22 22 22 23 23 24 25 28 31 33 33 31 29 27 24 23 22 20 18 14 9 6 3 2 2 4 5 8 11 14 19 24 27 28 28 27 28 28 27 27 26 25 24 24 24 25 25 25 25 24 24 26 28 29 31 31 31 31
13 15 15 16 16 17 20 22 23 24 24 24 25 25 24 23 22 22 23 21 19 21 24 25 25 24 23 23 22 23 24 24 25 26 29 32 34 34 32 29 27 26 24 22 18 14 10 6 3 2 1 3 4 6 9 12 15 20 25 27 28 27 27 28 29 28 27 25 24 24 22 22 24 24 24 25 24 25 27 29 29 30 31 31 30
14 15 15 15 17 18 21 22 22 23 24 23 24 24 23 22 22 22 23 22 22 25 28 28 27 26 24 22 22 23 25 25 25 25 25 24 25 28 30 28 27 26 23 19 15 11 8 5 3 1 2 3 6 8 10 12 15 21 25 27 27 27 27 28 28 27 26 24 23 24 23 23 24 26 27 28 28 28 30 30 30 30 32 31 27
15 15 15 16 18 19 21 22 23 24 23 22 24 24 22 22 23 23 23 24 26 29 30 30 29 26 21 20 21 23 25 26 27 28 26 23 21 23 24 24 23 22 19 16 12 8 6 4 2 1 3 5 8 10 11 13 16 21 25 27 26 27 28 28 26 26 26 25 24 24 25 25 27 28 29 29 30 30 31 32 31 31 33 32 28
16 16 16 17 19 19 21 22 24 24 22 22 23 23 22 24 24 23 25 28 30 31 31 29 25 20 17 18 20 23 26 28 30 31 32 30 26 24 22 19 18 17 15 13 9 6 4 2 1 3 5 7 9 11 13 15 18 22 26 27 26 27 28 27 26 26 26 25 24 24 25 27 28 29 29 30 30 30 31 33 34 34 35 35 33
15 16 17 18 19 20 21 22 23 23 21 21 21 22 23 25 25 25 28 31 30 29 28 23 18 16 18 20 23 26 30 32 32 32 31 29 26 23 19 17 16 15 14 12 8 5 2 0 2 4 7 9 11 13 15 17 19 23 26 27 27 27 27 26 27 27 25 24 25 25 26 27 28 29 30 31 32 32 33 34 36 36 37 37 37
14 15 17 18 18 19 20 22 23 22 20 20 20 22 24 24 25 28 29 28 27 24 20 16 17 20 23 27 31 34 36 35 33 30 28 26 24 22 18 17 16 15 13 11 7 4 1 2 4 6 9 11 12 14 16 18 21 24 27 28 27 27 27 26 27 27 25 25 26 26 26 28 30 32 33 34 35 35 36 36 37 38 38 38 38
15 17 19 18 18 19 20 23 24 22 19 18 19 21 23 23 25 26 25 24 21 16 13 19 23 27 30 34 37 37 36 34 32 30 28 25 23 21 19 17 14 12 10 8 5 1 2 5 8 10 12 13 13 15 17 19 22 25 28 29 28 28 29 28 28 27 26 25 26 27 29 32 34 35 36 37 37 38 38 39 39 40 40 39 39
18 20 20 20 19 20 21 23 24 21 17 16 16 17 18 19 20 20 18 16 13 13 19 24 27 30 33 35 37 36 35 33 31 29 28 26 23 21 19 16 12 9 7 5 2 2 5 8 10 13 14 15 15 17 19 21 24 26 29 29 29 31 31 30 29 28 27 28 30 31 33 34 34 35 35 35 35 35 36 37 38 38 39 38 38
17 19 21 21 20 20 20 21 22 19 14 12 12 11 11 11 10 10 9 8 11 17 22 24 27 30 32 34 36 35 33 31 29 27 25 23 20 18 16 14 11 8 5 3 2 4 6 9 12 14 16 17 18 19 21 23 26 28 31 31 32 33 32 30 29 29 29 30 31 31 32 32 32 33 33 33 33 34 35 36 36 36 37 36 35
17 19 21 20 18 19 19 19 20 17 11 8 8 5 2 2 4 4 5 11 16 19 20 21 23 27 30 33 34 32 30 28 26 24 21 19 17 16 14 12 10 7 5 3 3 5 8 10 13 15 17 19 21 23 24 27 29 32 33 33 32 31 30 29 29 30 31 31 31 31 31 31 31 32 32 31 31 32 32 33 33 33 33 33 33
19 21 21 18 17 18 18 18 19 15 8 5 5 3 5 7 10 12 16 22 24 25 24 23 23 25 28 31 32 30 29 26 23 21 19 17 16 14 13 11 9 7 6 4 5 7 9 12 14 16 19 21 22 24 26 28 31 32 32 32 31 29 29 29 30 31 31 31 30 30 29 28 27 28 28 28 28 28 28 29 30 30 30 30 31
20 22 21 18 17 18 18 19 18 13 6 6 6 7 9 12 16 19 25 29 28 27 28 28 27 27 27 29 30 29 27 25 23 21 19 17 15 14 13 11 10 7 5 5 6 7 9 11 13 15 17 19 21 23 25 26 28 29 28 29 29 28 28 29 29 30 30 29 27 26 25 24 24 24 24 24 24 25 26 26 27 28 28 29 29
21 22 21 20 19 19 19 19 17 11 9 11 10 10 11 15 20 23 25 26 23 21 23 25 26 25 25 26 27 26 24 23 21 20 19 18 16 14 13 11 10 7 6 6 7 8 9 10 12 13 14 14 17 21 24 25 26 26 26 26 27 27 27 27 27 27 26 25 23 22 22 22 22 22 22 22 23 24 24 25 26 27 27 27 28
21 20 19 20 21 20 18 17 15 10 13 14 12 12 15 18 20 20 18 17 17 18 20 21 21 21 22 23 24 24 22 20 19 19 19 19 17 14 12 11 10 8 8 8 9 9 9 9 10 12 12 13 17 21 24 25 25 25 25 25 25 25 25 25 25 25 23 21 21 21 21 21 22 22 22 22 23 24 24 25 26 26 26 26 26
Wind_Direction
216 201 201 204 203 196 193 191 187 184 185 186 185 183 181 178 176 172 172 176 177 175 171 167 162 157 155 156 151 143 146 151 144 141 140 141 136 117 32 360 340 333 330 323 359 357 21 45 54 63 73 80 83 78 82 120 172 161 178 198 186 211 240 252 257 247 239 255 265 270 274 286 290 267 255 256 254 256 256 253 253 256 258 257 256
198 194 202 206 208 202 198 195 190 188 187 188 188 185 183 182 180 174 175 180 181 180 175 170 167 166 165 162 157 153 155 162 161 154 146 145 142 121 37 20 13 30 43 61 77 72 69 67 66 71 78 80 80 76 78 86 99 134 141 111 115 137 154 209 240 216 189 203 287 305 288 281 276 267 266 268 264 258 255 253 253 255 259 261 260
203 196 200 204 208 204 202 200 196 194 191 189 190 187 185 186 183 178 178 179 177 177 175 171 168 167 166 162 163 163 159 159 157 147 139 141 138 112 75 57 53 69 76 78 82 81 79 82 81 78 78 77 78 76 77 82 84 90 96 97 102 106 112 134 170 168 171 170 84 19 306 293 277 273 287 288 280 268 256 251 251 253 257 259 259
209 204 196 196 202 204 205 203 200 197 194 191 189 188 189 190 186 182 180 179 175 173 174 174 171 168 166 163 165 163 154 149 141 132 129 131 132 118 92 77 70 82 94 89 83 80 78 81 84 81 79 77 77 77 75 74 74 75 77 82 88 92 95 91 82 100 138 148 121 167 150 37 299 318 322 300 295 307 284 262 257 257 258 258 257
208 204 193 189 197 201 202 203 202 200 197 194 191 190 193 193 188 186 184 180 178 175 176 178 176 174 170 166 166 160 155 155 151 145 142 139 136 128 108 120 134 116 110 97 84 78 75 76 78 80 80 77 75 76 75 73 71 69 69 70 74 82 90 83 75 79 81 89 103 137 141 92 216 357 337 300 310 342 349 329 288 273 274 272 269
214 209 201 195 195 193 195 201 203 203 201 197 194 195 198 195 191 190 188 184 181 180 183 185 184 184 177 171 170 168 170 173 167 156 151 148 142 135 116 105 115 124 114 96 87 84 81 78 73 74 73 69 68 70 72 69 65 65 63 64 67 71 82 80 74 81 85 81 80 97 99 64 225 297 322 302 328 326 336 1 352 346 338 323 306
222 218 210 199 189 183 191 201 204 204 203 198 196 198 199 196 193 191 190 187 184 184 189 193 193 192 186 180 179 179 179 177 169 159 153 151 147 145 133 111 108 114 112 101 91 86 83 81 76 72 71 68 67 67 67 63 62 63 57 58 65 60 64 68 66 74 83 74 74 89 86 71 57 312 283 276 329 305 291 322 331 340 341 334 328
217 217 211 199 189 188 197 202 203 203 200 197 197 199 199 197 193 191 191 190 188 188 193 199 200 198 193 189 188 188 185 174 169 169 164 162 159 157 154 138 128 121 115 104 91 85 81 83 83 80 76 71 67 65 63 59 53 52 48 47 53 53 54 62 64 62 59 55 54 58 66 69 59 5 316 289 289 281 301 318 325 326 323 319 317
217 216 210 199 195 198 201 202 201 200 198 197 198 199 199 197 193 192 192 192 192 192 196 202 205 204 199 197 196 194 190 179 176 178 176 176 173 169 167 160 148 137 127 112 97 92 88 89 87 79 70 62 58 55 50 44 39 36 37 37 40 47 51 53 59 60 54 47 34 26 33 43 55 59 5 331 296 281 301 315 321 323 321 317 314
221 217 210 203 202 202 200 197 196 198 198 198 199 199 199 196 194 194 194 195 196 196 199 203 208 209 206 204 203 198 193 188 185 186 187 189 186 176 172 165 152 141 133 122 110 100 94 95 88 72 61 53 47 43 36 32 33 34 36 36 38 43 46 47 53 57 55 49 39 32 29 31 51 67 19 358 337 298 298 302 317 325 323 313 313
221 219 210 201 200 195 191 190 191 194 196 197 199 201 200 197 196 197 198 198 199 201 202 205 210 214 213 211 209 205 198 195 194 193 194 197 193 183 176 171 161 149 138 127 119 111 104 99 82 65 54 46 40 33 30 31 37 42 46 47 46 46 46 45 47 49 49 48 43 40 42 48 56 48 11 360 348 321 318 316 317 321 313 302 306
219 211 192 180 179 181 184 185 184 187 191 196 200 201 201 200 198 200 202 201 202 204 206 209 213 216 218 216 214 212 206 203 202 201 199 199 195 189 184 178 170 163 155 144 135 131 124 104 76 58 43 39 37 31 29 33 39 45 51 52 50 48 46 43 43 42 40 39 39 37 35 38 35 18 3 349 331 316 313 304 304 315 308 292 302
207 183 174 176 176 178 181 180 179 184 190 195 198 200 202 202 200 202 204 204 205 206 208 212 215 217 219 219 218 217 215 212 211 209 207 205 200 197 194 188 182 178 173 166 158 154 154 147 117 64 31 32 34 30 31 36 39 44 47 46 43 42 39 35 35 35 33 30 29 28 25 23 18 6 348 333 324 312 301 293 296 303 294 292 305
182 175 180 184 175 171 182 186 186 189 192 194 197 199 201 202 202 204 206 206 207 209 211 214 215 216 218 221 221 221 220 218 216 216 215 211 209 208 206 201 198 192 183 177 176 179 191 204 200 181 31 26 25 24 34 43 45 46 43 38 35 33 31 28 27 27 26 24 20 16 15 14 11 7 352 333 323 309 294 292 300 299 285 285 297
355 173 177 179 169 167 178 189 195 198 197 197 198 199 201 202 204 206 207 208 210 211 213 215 215 215 217 221 224 225 225 222 221 222 221 218 216 216 215 213 212 206 194 189 191 198 209 212 208 212 331 15 8 11 31 49 53 50 44 37 34 33 30 28 25 22 19 17 15 10 6 3 360 358 352 343 334 320 307 299 299 300 291 281 282
357 15 139 160 171 175 180 187 194 200 202 203 203 203 205 205 206 208 209 209 212 213 215 217 217 216 217 220 225 228 228 225 224 224 224 224 223 223 222 220 220 217 207 202 203 208 213 212 212 218 225 314 334 355 19 40 50 48 41 35 31 30 29 26 23 20 15 10 6 3 359 356 351 347 342 338 334 328 323 317 304 295 292 290 288
12 18 64 144 160 174 183 189 193 196 199 203 206 207 210 212 212 214 213 213 215 216 216 218 219 220 221 222 225 228 229 228 228 228 228 227 227 229 228 226 225 222 217 213 211 211 211 212 214 217 220 254 299 340 29 46 49 40 31 28 26 25 24 20 17 14 11 6 2 358 353 350 348 343 337 333 329 323 319 317 311 300 291 289 294
18 27 33 37 137 172 182 190 197 200 200 203 205 210 215 217 218 219 219 217 218 219 219 220 221 223 225 226 226 228 230 232 232 233 233 232 231 230 229 228 227 225 222 218 214 211 211 213 215 213 218 236 249 201 153 99 58 39 24 20 19 18 19 14 9 7 5 2 1 359 355 350 346 342 337 333 329 325 320 315 311 306 296 284 280
19 21 26 24 20 183 196 195 196 199 204 206 208 214 218 220 221 223 225 224 224 225 225 225 225 226 229 230 231 231 233 234 235 236 236 236 235 233 230 230 228 226 225 220 215 213 212 214 215 215 222 226 213 185 165 122 70 39 20 14 11 8 9 9 4 359 355 352 351 353 353 351 346 341 336 332 327 325 323 318 313 310 304 295 285
28 22 24 21 18 15 357 214 206 202 204 206 209 216 220 223 224 226 230 231 230 231 232 232 230 230 231 232 233 235 235 236 237 238 239 240 239 237 234 234 231 227 226 222 219 216 215 216 219 223 229 230 215 194 173 123 62 17 360 357 351 347 348 349 344 338 336 336 338 340 341 342 340 335 332 330 325 321 319 317 315 311 306 304 297
32 32 33 28 28 31 33 21 255 217 210 210 211 217 221 223 224 225 229 231 231 233 236 237 235 233 234 234 235 236 236 237 238 239 241 243 242 241 239 237 235 230 226 223 220 219 219 222 226 231 235 238 228 211 197 230 314 328 334 335 331 328 326 324 324 328 333 337 337 337 336 334 332 328 325 323 321 317 314 310 309 308 304 303 301
20 18 26 29 37 45 49 50 48 53 76 219 222 224 224 224 225 226 227 228 229 232 234 236 236 234 235 236 236 237 237 237 237 239 241 242 243 243 241 239 236 232 226 224 222 221 222 226 231 236 240 242 238 229 234 268 299 313 323 328 326 323 322 322 326 331 334 335 333 331 330 330 326 321 317 316 316 314 312 308 306 306 303 301 301
14 19 22 26 38 48 51 50 49 48 46 42 27 254 239 236 232 229 228 229 230 232 234 233 234 237 238 237 236 237 238 238 237 237 240 242 243 242 241 240 237 232 226 223 222 221 222 227 233 238 242 242 241 243 259 283 296 307 318 324 324 323 323 323 326 328 329 328 327 327 326 325 322 316 310 306 305 302 303 306 304 303 302 300 299
12 22 23 29 37 39 39 39 38 37 36 36 35 31 11 304 259 242 237 235 232 233 234 232 233 241 243 239 237 237 237 238 239 238 239 241 242 242 240 239 236 230 224 220 219 219 221 225 229 235 239 240 245 257 276 289 293 305 318 322 320 316 316 318 320 322 323 323 323 323 322 322 319 313 307 300 296 295 297 299 300 299 299 298 297
14 18 22 30 31 29 30 30 30 29 26 25 26 27 27 21 356 281 257 249 242 237 235 233 235 240 240 238 237 237 235 236 239 239 239 240 240 240 238 236 232 227 222 216 213 214 217 222 225 228 231 234 246 261 274 282 292 305 312 311 308 306 309 313 316 317 318 319 319 318 318 318 314 308 304 299 295 294 295 295 295 296 295 295 295
16 20 23 25 24 25 26 26 25 24 21 18 16 15 16 18 19 8 322 282 264 251 242 237 238 241 239 237 238 237 235 236 238 238 238 238 237 237 234 231 227 223 218 214 212 212 215 218 219 219 221 228 239 251 261 272 286 298 301 300 301 304 306 308 309 312 314 314 314 314 313 313 308 303 300 298 296 294 293 292 292 292 292 292 291
11 19 18 18 20 19 20 22 22 19 16 14 11 9 6 4 6 9 5 349 313 275 256 247 243 243 244 243 241 239 238 238 238 238 238 237 235 233 230 226 223 219 215 211 209 210 213 214 215 214 218 227 234 239 246 257 271 282 290 298 302 304 306 307 309 311 312 312 311 310 309 308 304 300 297 297 296 295 293 291 290 289 289 288 287
9 15 13 17 15 3 7 15 16 12 9 7 4 2 0 356 355 356 357 356 349 321 283 265 255 249 248 249 248 246 244 241 241 241 240 238 235 232 227 221 215 211 211 209 207 207 209 209 211 214 219 223 224 224 226 234 253 274 288 296 302 306 309 310 311 311 310 309 308 307 306 303 300 298 296 295 294 293 291 289 287 287 287 287 286
5 2 356 358 352 345 357 5 7 5 1 358 355 354 353 350 348 348 347 347 346 340 323 295 274 262 257 255 253 251 248 245 245 244 243 240 236 232 225 216 209 206 206 206 206 206 206 205 206 211 214 212 207 204 206 226 255 282 297 304 308 310 311 311 310 308 308 307 305 304 302 300 298 295 293 292 290 288 286 284 284 285 285 285 284
345 337 324 319 316 323 345 356 1 359 354 349 345 344 343 339 338 339 339 340 338 334 330 317 297 283 273 264 256 251 248 247 247 247 245 239 231 224 217 210 206 204 201 201 202 202 203 206 207 205 202 197 195 199 212 247 285 305 314 317 318 316 314 311 309 307 306 304 303 302 300 298 297 295 293 291 288 286 284 281 281 281 280 279 278
319 317 313 314 318 333 350 353 351 348 345 341 336 334 331 329 328 329 330 332 330 326 324 318 308 300 291 277 264 254 250 250 248 246 243 235 224 216 210 204 200 197 196 196 196 198 204 208 205 198 192 192 197 209 237 282 311 325 330 331 328 323 318 313 309 306 304 303 302 300 299 299 298 296 295 293 291 288 285 282 280 277 275 274 272
309 313 318 322 326 334 340 338 338 338 337 333 330 327 323 321 322 323 324 323 321 319 318 315 311 307 299 286 271 259 252 251 249 244 239 230 220 211 203 196 191 190 191 190 192 201 204 200 195 190 188 192 202 226 268 304 323 333 337 337 334 330 323 316 311 306 303 302 300 299 298 296 296 296 297 295 292 289 287 284 282 279 275 272 268
304 307 307 306 308 316 323 326 329 330 329 329 326 320 317 318 318 319 319 317 315 314 312 311 310 308 302 291 277 262 253 250 247 241 231 220 211 203 196 190 186 188 189 186 189 197 196 191 189 186 185 192 210 250 288 314 328 334 338 338 337 334 326 319 313 308 304 302 299 298 296 294 294 295 294 293 291 289 287 285 282 279 276 272 269
302 301 296 293 300 310 318 323 325 326 326 325 323 319 317 317 317 315 315 312 309 306 306 307 308 307 304 295 279 264 254 248 242 232 220 211 204 197 191 187 185 186 185 181 182 186 185 185 186 182 184 201 231 272 302 321 330 335 337 337 337 334 327 320 314 309 306 303 300 298 295 294 294 293 292 291 290 289 287 285 282 279 276 274 271
302 301 298 302 308 313 317 320 322 323 323 322 322 321 319 317 318 315 312 309 304 299 298 300 302 304 303 295 279 263 250 242 232 220 210 202 197 191 186 184 183 182 181 178 177 180 180 179 181 184 193 217 262 298 318 330 335 338 338 337 336 333 326 320 314 310 307 304 302 300 296 295 293 292 291 289 288 287 285 284 283 280 278 276 272
286 287 291 298 304 309 312 314 316 317 317 317 318 319 317 315 316 315 311 308 303 299 296 295 295 297 298 292 276 258 243 230 219 209 200 193 189 186 183 180 177 175 177 177 176 177 176 175 177 188 207 243 288 306 322 333 336 338 337 337 336 332 326 320 314 311 308 305 304 301 298 295 293 290 289 288 286 285 283 282 282 281 280 278 274
282 288 292 297 303 307 309 310 311 311 312 314 316 316 313 311 313 313 310 306 301 298 297 295 291 290 292 288 271 250 233 219 208 200 192 188 185 182 178 175 172 171 172 173 171 169 168 169 171 182 228 270 289 308 323 329 334 337 339 339 337 332 325 319 314 311 308 306 305 304 300 296 293 290 289 289 287 285 283 282 282 283 282 279 276
287 292 295 300 306 310 312 311 306 305 308 312 314 314 310 306 307 308 306 302 298 296 294 291 288 287 289 285 266 242 225 211 199 192 188 184 181 178 174 171 170 167 164 163 161 156 151 149 144 159 247 288 307 315 319 324 330 337 341 341 338 332 324 317 313 311 309 306 305 305 301 294 290 289 288 287 286 284 283 282 282 283 281 279 277
288 291 292 299 306 310 312 310 304 302 307 311 311 310 306 300 299 301 299 296 292 292 291 288 287 287 286 276 256 233 214 199 186 180 176 170 166 165 163 162 161 157 153 152 151 144 138 135 134 165 274 307 315 314 314 317 328 338 342 342 338 331 322 316 312 310 308 305 303 301 297 290 288 287 286 284 283 282 281 280 280 280 279 277 279
289 292 294 300 305 306 307 306 302 302 306 308 307 306 300 293 293 293 290 287 288 291 291 289 287 285 276 258 237 215 200 189 180 173 163 149 139 140 143 144 144 145 145 144 142 134 127 131 142 275 302 304 306 309 310 314 326 338 340 338 335 329 321 316 310 307 305 302 298 295 293 291 290 289 288 286 283 281 279 278 277 275 274 277 281
290 295 300 302 302 303 302 300 301 303 303 303 303 299 291 287 286 283 281 285 289 291 290 287 282 270 245 223 207 193 182 173 165 156 148 142 138 135 135 135 136 139 141 139 137 131 123 127 282 304 304 301 302 307 311 316 326 335 337 334 329 325 321 314 307 303 301 297 295 294 293 293 292 291 290 288 285 282 279 277 274 271 272 275 278
291 296 301 301 300 301 298 297 301 303 299 298 298 291 283 280 276 274 279 286 291 292 287 276 256 226 201 186 175 166 157 149 142 136 133 135 136 137 139 141 142 144 144 144 146 144 133 338 307 308 308 308 309 311 315 319 325 331 333 329 324 321 320 313 305 302 299 296 295 295 293 293 293 292 291 289 286 284 281 277 275 273 273 274 274
289 293 300 301 297 296 295 295 300 301 297 298 296 285 277 273 271 275 283 287 290 290 276 241 205 183 170 159 151 146 141 137 135 132 129 130 133 135 141 146 147 148 150 150 149 144 118 323 318 317 317 317 318 319 320 322 325 328 329 325 320 319 318 313 307 303 300 298 297 296 295 296 296 295 292 290 288 285 282 279 277 276 275 274 273
291 295 303 302 295 294 296 298 301 301 299 300 295 281 274 272 275 281 286 286 284 271 226 190 172 160 151 144 140 137 134 133 132 130 128 132 139 143 147 149 148 148 150 148 140 117 339 327 323 324 327 328 327 326 324 323 325 326 325 322 319 318 318 317 312 307 303 301 301 300 300 300 298 296 294 292 290 287 283 281 278 276 274 272 269
294 298 304 302 296 296 297 298 302 304 304 301 292 278 275 279 285 288 286 277 257 210 176 162 154 148 143 138 135 133 132 131 131 131 133 141 148 149 150 153 154 152 150 144 124 360 335 329 326 327 330 331 330 327 325 324 325 325 323 322 321 321 321 320 316 311 308 306 305 304 303 302 300 298 295 293 290 286 284 282 279 277 274 269 264
289 295 300 300 299 299 297 297 302 307 307 298 286 277 278 288 297 296 276 236 186 161 151 145 142 140 137 134 132 132 133 134 136 137 139 143 146 145 146 154 160 157 147 121 48 356 337 330 328 329 329 327 326 324 323 324 327 325 324 324 324 323 323 321 318 316 313 311 309 308 306 303 300 298 295 291 288 287 286 284 281 277 273 267 261
283 290 295 296 297 297 296 295 298 303 303 287 274 269 270 360 35 63 131 141 132 126 124 126 130 132 132 132 132 133 135 136 138 140 140 137 137 137 138 144 148 140 119 87 30 353 340 335 332 331 330 328 327 326 326 328 329 326 325 327 327 325 324 324 322 321 319 316 313 310 308 305 302 300 298 295 292 290 289 286 282 278 272 265 260
284 289 291 292 290 289 289 288 289 292 286 254 234 186 128 98 83 94 112 114 111 109 109 110 116 121 125 127 128 130 133 133 134 134 133 134 135 134 131 130 126 112 94 68 21 359 352 346 341 339 337 334 332 332 333 332 330 328 329 329 328 327 327 326 325 324 322 319 315 313 310 307 305 303 300 298 295 292 289 286 283 280 275 270 264
281 285 287 288 286 285 284 284 284 280 247 199 178 156 135 111 98 101 107 107 107 110 113 116 119 121 123 125 128 131 133 136 136 135 133 133 133 131 128 123 113 99 81 54 28 18 9 359 354 353 349 342 337 336 337 335 332 330 331 332 331 330 330 329 328 327 325 321 316 312 310 308 306 303 301 299 296 294 292 289 286 283 279 274 267
277 281 285 285 283 284 283 281 281 266 208 176 158 153 147 126 115 114 115 117 119 124 130 134 134 134 137 139 140 141 141 141 140 137 134 131 128 125 124 119 111 104 91 72 56 43 28 13 5 5 2 353 344 341 340 339 336 335 335 335 335 334 333 332 332 332 329 322 315 311 309 308 307 305 304 302 299 297 295 293 291 288 284 278 271
275 278 282 283 284 285 282 278 276 245 189 168 152 151 151 140 135 136 138 142 146 151 154 154 150 150 154 154 152 150 146 140 136 133 133 133 131 129 127 123 120 113 95 77 62 48 36 23 13 9 6 2 356 351 348 345 343 343 342 341 339 339 339 338 338 336 329 322 317 314 312 310 309 306 304 303 301 299 297 294 293 291 287 282 275
Height
779 779 780 781 782 783 784 785 787 788 790 791 792 793 794 795 796 798 800 801 803 804 805 806 807 808 808 809 809 810 811 812 812 813 814 815 815 816 816 816 816 815 815 816 816 817 817 817 817 818 817 818 819 819 819 821 822 822 822 822 824 826 827 827 827 826 827 828 827 827 826 826 827 827 826 827 828 829 829 830 831 832 832 832 833
779 779 780 781 782 783 784 785 786 787 788 790 791 793 794 796 796 797 799 800 802 804 805 806 807 808 808 809 809 810 811 812 813 813 814 815 815 816 816 816 816 816 816 816 816 817 817 817 817 818 817 818 818 818 819 820 822 822 822 822 823 824 824 825 826 826 826 826 826 827 826 825 825 825 825 826 826 827 827 828 829 830 830 831 832
777 778 779 780 781 783 784 784 785 786 787 789 791 792 794 795 796 797 797 799 801 803 805 806 807 808 809 809 810 810 811 812 813 813 814 815 815 816 816 816 816 816 816 816 816 817 817 818 818 818 818 818 818 818 819 820 821 821 821 821 821 823 824 825 826 825 825 825 826 827 827 826 825 824 824 825 825 825 826 826 827 828 829 829 830
775 776 777 779 781 782 782 783 784 785 786 787 789 791 793 794 795 796 797 799 801 803 805 806 807 808 809 810 810 810 811 812 813 814 815 815 816 816 816 816 817 817 817 817 817 817 818 818 818 819 819 819 819 819 819 820 820 821 821 820 821 821 823 824 824 824 824 824 826 827 828 828 827 826 825 825 825 824 824 825 826 826 827 828 829
770 771 774 776 777 778 780 782 783 784 785 785 787 789 792 794 795 797 798 799 801 803 804 806 807 808 809 810 810 811 811 812 813 814 815 815 816 816 816 817 817 817 818 818 818 818 818 819 819 819 820 820 820 820 820 821 821 821 821 821 820 821 821 822 823 823 824 824 825 826 828 829 829 828 826 825 824 824 824 824 825 826 826 827 828
767 768 769 771 773 775 778 780 781 781 782 784 786 789 791 793 795 797 798 799 800 802 804 805 806 807 808 809 809 810 811 811 812 813 814 816 816 816 817 817 817 818 818 818 819 819 819 819 820 820 820 821 821 821 821 821 821 821 821 821 821 821 821 822 822 823 824 824 824 825 827 828 828 828 828 826 824 825 824 824 825 825 826 826 827
765 765 766 768 771 774 775 776 777 778 780 783 786 788 789 791 793 795 797 798 799 801 803 804 806 807 807 808 808 809 810 811 812 813 814 815 816 817 817 817 817 818 818 819 819 819 820 820 820 820 821 821 821 821 821 822 822 822 822 821 821 822 821 821 822 823 823 824 824 825 825 826 826 827 828 827 826 826 824 824 824 825 825 826 826
761 761 762 765 768 769 770 771 773 776 779 782 784 786 787 789 791 793 795 797 798 800 802 803 805 806 807 807 808 809 809 810 811 813 814 815 816 817 817 818 818 818 819 819 820 820 820 820 821 821 821 821 822 821 822 822 822 822 822 822 821 822 822 822 823 823 823 824 824 824 824 825 826 826 827 827 827 826 824 823 823 824 824 825 825
756 756 757 760 763 763 765 768 772 775 778 780 782 784 786 788 790 792 794 796 797 799 801 802 804 805 807 807 808 809 810 811 811 812 813 814 816 817 817 818 818 819 819 820 820 821 821 821 821 822 822 822 822 822 822 822 822 822 822 822 822 822 822 823 823 823 824 824 824 824 824 825 826 827 827 827 826 826 825 823 823 823 823 823 824
751 752 753 755 758 761 765 769 772 774 777 779 782 784 785 787 789 791 793 794 796 798 800 801 803 804 806 807 807 809 809 810 811 812 813 814 815 817 817 818 818 819 819 820 820 821 821 822 822 822 822 823 823 823 823 823 822 822 822 822 822 822 823 823 824 824 825 825 825 825 825 825 826 827 827 827 826 826 825 824 824 824 823 822 822
748 749 752 755 759 762 766 769 770 773 776 779 781 783 784 785 787 789 791 793 795 797 799 800 802 803 805 806 807 808 809 810 810 811 812 813 815 816 817 818 818 819 819 820 820 821 822 822 822 823 823 823 823 823 823 823 823 823 823 823 823 823 823 824 824 825 825 825 825 826 826 826 826 827 827 827 827 826 825 825 824 824 824 822 822
747 750 753 756 759 762 764 766 769 772 774 776 778 780 782 784 786 788 790 792 793 795 797 799 801 802 803 805 806 807 808 808 809 810 811 812 814 815 816 817 818 818 819 820 820 821 821 822 822 823 823 823 823 823 823 823 823 823 823 823 824 824 824 824 825 825 825 825 825 826 826 826 826 827 827 827 826 826 826 825 824 824 823 821 821
748 750 752 754 757 759 762 764 766 768 770 773 775 778 780 782 784 786 787 789 791 793 795 797 799 800 802 803 805 806 807 807 808 809 810 811 812 814 815 816 817 818 819 819 820 821 821 822 822 822 823 823 823 823 824 823 823 823 823 824 824 824 824 824 825 825 825 825 825 825 826 826 826 826 826 826 826 826 826 825 824 824 823 821 820
749 750 751 753 755 758 761 764 765 767 768 770 773 775 778 780 782 783 785 788 790 792 794 795 797 798 800 801 803 805 805 806 807 808 809 810 811 812 813 815 816 817 818 819 820 820 821 821 822 822 823 823 823 823 824 824 824 824 824 824 824 824 824 824 824 825 825 825 825 825 825 826 826 826 826 826 826 826 825 825 824 823 822 820 819
751 751 752 754 756 757 760 763 766 768 770 771 773 774 776 777 779 781 783 786 787 790 792 793 795 797 798 800 801 803 804 805 806 807 808 808 809 811 812 813 815 816 817 818 819 819 820 821 821 822 822 822 823 823 823 824 824 824 825 825 825 825 825 825 825 824 825 825 825 825 825 825 825 825 826 826 825 825 825 824 824 823 822 820 818
754 753 754 755 756 757 759 761 764 767 770 772 774 775 776 777 778 779 781 784 786 788 789 791 793 794 796 798 799 801 802 803 804 805 806 807 808 809 810 812 813 814 816 816 817 818 819 820 820 821 821 822 822 822 823 823 824 824 825 825 825 825 825 825 825 825 825 825 825 825 825 825 825 825 825 825 825 825 824 824 823 823 822 820 818
756 755 755 756 756 757 759 761 763 765 768 771 773 776 777 778 780 781 782 784 784 785 787 789 791 793 794 796 797 799 800 801 802 803 804 806 807 808 809 810 811 813 814 815 816 817 818 819 819 820 820 821 821 821 822 822 823 823 824 824 825 825 825 825 825 825 825 825 825 825 825 825 825 825 824 824 824 824 824 824 823 823 822 821 819
758 756 756 757 757 758 759 761 763 765 767 770 772 775 777 778 780 781 782 783 783 785 786 788 790 791 793 794 795 797 798 799 800 802 803 804 805 806 807 808 809 811 812 813 814 815 816 817 818 818 819 819 820 820 821 821 822 823 823 823 824 824 824 825 825 825 825 825 825 825 825 825 825 824 824 824 823 823 822 822 822 822 821 820 819
761 759 758 758 758 759 760 761 763 765 767 770 772 774 775 777 779 780 781 782 784 786 787 788 789 790 791 792 794 795 797 798 799 800 801 802 803 804 805 806 808 809 810 811 812 813 815 816 816 817 817 818 819 819 820 820 821 822 822 822 823 823 823 823 824 824 824 824 824 824 824 824 824 824 823 823 822 822 821 820 820 820 819 819 818
766 764 762 761 760 760 760 762 763 764 766 768 770 772 774 776 778 779 781 783 784 786 786 787 788 789 790 791 792 794 795 797 798 799 800 800 801 802 803 804 806 807 808 809 810 812 813 814 815 815 816 816 817 818 818 819 820 821 821 821 822 822 822 822 822 822 822 822 822 822 823 823 823 822 822 822 821 820 820 819 818 818 818 817 817
769 768 767 766 764 763 762 763 764 765 766 767 768 770 772 774 776 777 779 781 782 784 785 786 787 788 789 789 790 791 793 795 796 797 798 798 799 800 801 803 804 805 807 807 809 810 811 813 813 814 815 815 816 817 817 818 819 819 820 820 821 821 821 821 821 821 821 820 820 820 820 821 820 820 820 820 819 819 818 818 817 816 816 816 815
771 771 770 769 768 766 766 765 765 766 767 768 768 770 771 772 773 774 775 777 778 780 781 782 783 784 785 786 787 789 790 791 793 794 795 796 797 798 799 801 802 803 805 806 808 809 810 811 812 813 813 814 815 815 816 816 817 818 819 819 819 820 820 820 820 820 820 819 819 818 818 818 818 818 817 817 817 817 816 816 815 815 814 814 814
774 773 771 771 770 768 768 767 767 768 768 769 769 770 771 772 772 773 773 774 775 777 777 778 780 782 783 783 784 786 787 788 789 790 791 792 794 795 797 798 800 802 804 805 807 808 809 810 811 812 812 813 814 814 815 815 816 816 817 817 818 818 818 819 819 819 818 818 817 817 817 816 816 815 815 815 815 814 814 814 813 813 812 812 812
774 773 772 772 770 769 769 768 768 769 768 769 769 769 770 771 772 773 773 773 774 775 775 776 778 780 781 781 782 782 784 786 787 787 788 790 791 793 794 796 798 799 801 803 805 807 808 809 810 811 812 812 813 813 814 814 815 815 815 815 816 816 816 817 817 817 817 817 816 816 815 815 814 813 812 812 812 812 812 811 811 811 810 810 810
776 775 774 773 772 772 771 770 770 769 769 770 769 770 770 770 771 772 772 773 774 774 774 775 775 775 775 777 778 779 780 781 783 784 785 787 788 790 792 793 796 797 799 801 803 805 806 807 809 810 811 812 812 813 813 813 814 814 814 814 814 814 815 815 815 815 815 815 814 814 814 813 813 812 811 810 810 810 809 809 808 808 808 808 807
778 778 776 776 775 775 774 772 772 771 770 770 770 770 770 771 771 771 772 773 773 773 773 773 774 773 773 774 774 776 777 777 778 780 781 783 785 786 788 791 793 795 797 799 801 802 804 806 807 808 809 810 811 812 812 813 813 813 813 813 813 813 813 813 813 813 812 812 812 811 811 811 810 810 809 808 808 808 807 807 806 806 806 806 805
781 780 779 778 778 777 776 775 774 773 772 772 771 771 771 771 771 771 771 771 771 772 773 773 773 772 772 772 773 774 775 775 776 777 778 780 780 781 784 787 790 792 795 797 799 801 802 804 805 807 808 809 810 811 811 811 812 812 812 812 811 811 811 811 810 810 810 809 809 808 808 807 807 807 806 806 805 805 805 804 804 804 803 803 802
782 782 781 780 779 779 778 776 775 774 773 773 773 773 773 772 771 771 771 771 770 771 771 771 771 771 771 772 772 773 774 775 776 777 777 778 779 780 781 783 786 789 792 795 797 799 801 802 804 805 806 807 808 809 810 810 810 810 810 810 810 809 809 808 808 807 807 806 806 805 805 804 804 804 803 803 803 802 802 801 801 801 801 800 800
782 781 781 780 780 779 778 777 776 774 773 773 773 772 772 771 771 770 770 770 770 769 769 769 769 769 769 770 770 771 771 773 774 774 775 776 779 782 784 785 787 788 791 794 796 797 799 801 802 804 805 806 807 808 808 808 808 808 808 808 808 808 807 806 805 805 804 803 802 802 801 801 800 800 800 800 800 800 799 798 798 798 797 797 796
781 781 780 780 779 778 778 776 775 775 774 773 773 772 772 771 771 770 769 769 769 768 767 767 767 767 767 768 768 768 769 770 770 771 771 773 776 779 782 786 788 789 791 793 795 796 798 799 801 802 803 805 805 806 806 806 807 806 807 807 806 806 806 805 803 802 801 800 799 798 798 797 797 796 796 796 796 796 796 795 795 794 794 793 793
782 781 779 778 777 776 776 775 775 775 775 774 773 772 772 771 770 770 769 768 768 767 766 766 765 766 766 766 766 766 766 766 767 768 769 771 773 775 778 781 783 787 790 792 794 796 797 798 799 800 801 803 803 804 804 805 805 805 805 805 804 804 804 803 802 800 798 797 796 795 794 793 793 792 792 792 792 792 791 791 791 790 790 790 789
781 780 778 777 776 775 775 775 774 774 774 774 773 772 771 770 769 768 768 767 767 766 765 764 764 764 764 764 764 764 764 764 765 766 767 769 771 774 776 777 779 783 787 789 792 794 796 797 797 798 799 801 802 803 803 803 803 803 802 802 802 802 801 800 799 798 796 794 793 792 791 790 789 789 788 788 787 787 787 786 786 785 785 785 785
779 779 778 777 776 775 775 774 773 773 773 772 772 771 770 769 768 767 766 766 765 764 764 763 763 762 762 762 762 762 762 762 763 764 765 767 770 771 773 775 777 781 783 785 789 793 795 796 797 797 798 799 800 801 801 801 800 800 800 799 799 799 798 797 796 795 793 792 790 788 787 786 786 785 785 784 784 783 782 782 781 780 780 780 780
778 777 777 776 776 775 774 773 772 772 771 770 770 769 768 767 767 766 765 765 764 763 762 761 760 760 760 760 760 760 760 760 761 762 763 765 767 769 771 773 775 778 781 783 786 791 795 796 796 797 797 798 799 799 799 799 798 798 797 796 796 795 795 794 793 792 790 789 787 786 784 783 782 782 782 781 780 779 778 777 776 775 775 774 774
777 776 776 775 775 774 773 772 771 770 769 768 767 766 765 765 765 764 763 762 762 761 760 760 759 758 757 757 757 757 757 758 759 760 761 763 765 767 770 771 774 777 780 782 785 790 793 795 796 796 796 797 798 798 798 798 797 796 795 794 793 792 791 791 790 789 787 785 784 783 781 779 779 778 778 778 777 776 775 773 772 770 770 769 769
776 776 775 774 774 773 772 770 769 768 767 766 765 764 763 762 762 761 760 759 759 758 758 757 756 756 755 754 754 754 755 756 757 758 760 761 763 765 767 769 772 776 780 783 786 789 792 794 794 795 795 796 797 797 797 796 796 795 793 792 791 789 788 787 786 785 783 782 781 779 778 776 775 775 775 775 775 774 772 770 768 766 765 764 763
775 775 774 773 772 772 771 769 768 767 765 764 763 762 760 759 759 758 757 756 756 755 755 754 753 752 752 751 751 751 752 753 755 756 758 759 761 763 766 767 770 774 779 782 786 788 790 792 793 793 794 795 795 796 795 794 794 793 792 790 788 787 785 784 783 782 780 779 777 776 774 773 771 771 771 771 772 771 769 767 764 762 761 759 758
774 773 773 772 771 770 769 768 766 765 763 762 761 760 758 757 756 755 753 753 752 752 751 750 749 749 749 748 748 748 749 751 753 755 756 758 759 761 763 766 769 773 778 782 785 787 789 790 791 792 793 794 794 794 793 793 792 792 790 788 787 785 783 782 780 779 777 775 773 772 771 770 769 768 768 768 769 768 766 763 762 759 756 754 754
773 772 771 771 770 769 767 766 764 762 761 760 759 757 756 754 753 752 750 749 748 747 746 745 745 745 745 744 744 745 747 749 751 754 756 758 760 761 762 765 770 774 778 781 784 786 788 789 790 791 791 792 792 792 792 791 791 790 789 787 785 784 782 780 778 775 773 772 770 768 768 767 766 765 765 765 765 765 762 760 759 756 752 749 750
771 771 770 769 769 767 766 764 762 760 758 758 756 755 754 752 750 749 747 745 744 743 742 741 741 741 741 741 741 743 745 746 749 752 754 758 764 767 768 770 773 776 779 782 784 786 787 788 788 789 789 790 790 790 790 789 789 788 787 785 784 782 780 778 776 773 770 768 767 765 764 763 762 761 760 760 760 760 758 756 755 753 748 746 747
769 769 768 767 766 765 764 761 760 758 756 755 754 752 751 749 747 746 744 741 740 739 738 737 737 737 737 738 739 741 743 745 748 750 752 756 763 768 772 775 777 778 780 782 784 785 786 787 787 788 788 788 788 788 788 787 786 786 785 783 782 781 779 776 773 771 768 765 762 761 759 758 757 756 756 755 754 754 753 751 749 747 744 744 744
767 766 766 765 764 762 761 759 757 756 754 753 752 750 748 746 744 742 739 738 736 735 733 733 734 734 734 735 737 740 742 745 748 751 754 758 763 767 771 775 778 779 780 782 784 785 785 786 786 787 787 787 786 786 785 785 784 783 783 782 780 779 777 774 770 767 764 761 758 756 754 753 753 752 751 750 749 748 748 745 743 741 740 740 739
765 764 764 763 761 759 758 756 755 753 752 751 750 748 745 743 740 738 736 734 732 730 730 730 731 732 733 734 736 739 742 745 748 752 757 761 764 767 772 776 778 779 780 781 782 783 784 784 785 785 785 785 784 784 783 783 782 782 781 780 778 776 774 771 767 763 759 756 754 752 750 749 748 747 746 745 743 742 741 738 736 736 735 734 734
762 761 760 760 758 756 755 753 751 750 749 749 747 744 742 740 737 735 733 731 728 727 728 729 730 731 733 734 736 739 742 746 749 753 757 762 765 768 772 776 778 779 779 780 781 782 782 783 783 783 783 782 782 782 781 781 780 780 779 777 776 773 770 767 763 758 755 752 750 748 746 745 744 742 740 738 736 735 733 731 729 729 728 728 728
759 758 758 757 756 754 752 750 748 747 747 746 744 742 740 738 735 733 731 729 727 727 727 728 730 732 733 735 737 740 743 747 750 754 758 762 766 768 771 774 777 778 779 779 780 780 781 781 781 781 781 780 780 780 780 779 779 778 776 774 772 768 765 761 758 754 751 748 746 744 742 740 738 736 734 732 729 727 726 724 723 723 722 722 721
758 756 756 755 753 751 750 747 745 744 744 744 742 741 739 737 735 732 730 728 728 728 728 730 732 733 735 737 739 742 745 748 752 756 760 763 766 768 770 773 776 777 778 779 779 780 780 780 780 780 780 779 779 778 778 777 777 775 772 770 766 763 759 756 753 750 747 744 742 740 737 735 733 731 729 726 724 722 720 718 717 716 716 715 714
756 755 754 753 751 749 747 745 744 743 743 743 742 741 740 737 735 733 731 730 730 730 732 734 735 736 737 739 740 744 747 751 755 759 762 765 767 769 772 774 776 777 778 778 779 779 780 780 779 779 778 778 777 777 776 775 773 770 768 764 761 758 755 752 749 746 743 740 737 735 733 731 728 726 724 722 720 717 715 713 711 710 709 708 707
753 752 751 750 749 748 746 744 743 742 742 742 741 741 740 738 737 735 733 732 732 734 736 738 740 741 741 742 744 747 750 754 758 761 764 766 769 771 773 774 775 776 777 778 778 778 778 778 778 778 777 776 775 774 773 772 770 767 764 761 758 754 752 749 746 743 740 737 734 732 729 727 725 722 719 717 715 713 711 708 706 704 703 701 700
750 750 749 747 746 745 744 742 741 741 741 741 741 741 741 740 739 738 737 736 737 739 740 742 744 746 746 747 748 750 753 756 760 763 766 768 770 772 773 774 775 776 777 777 777 777 777 777 777 777 776 775 774 773 772 770 768 765 762 758 755 752 749 747 744 741 738 735 732 729 727 724 722 719 716 714 711 709 706 704 702 700 698 696 695
748 747 746 744 744 743 742 740 739 739 741 741 740 741 742 742 742 743 743 742 743 745 745 746 747 749 750 751 752 753 755 758 761 763 766 768 770 772 773 773 774 776 776 776 776 776 776 776 776 776 776 776 774 773 771 768 765 762 759 755 753 750 748 745 742 740 737 734 730 728 725 722 720 717 714 711 708 705 703 699 697 695 693 691 689
746 745 743 741 740 740 739 738 737 738 739 740 740 742 743 744 745 746 747 747 747 747 748 748 749 750 752 753 754 755 757 759 761 764 765 767 770 772 773 773 774 775 775 775 775 775 776 776 776 776 776 775 774 771 768 765 762 759 756 754 751 749 747 744 741 738 735 732 729 726 723 721 718 715 712 709 706 703 700 696 693 690 688 686 684